Location: Herm
(49.4830°N, 2.4500°W)
Time: 20:32:58
(UTC+00:00)

NOAA 15 - Pass Details

Date: 03 November 2021
Orbit: 797 x 812 km, 98.7° (Epoch: 27 November)

Event Time Altitude Azimuth Distance (km) Brightness Sun altitude
Rises 20:33:07 0° 218° (SW) 3,324 8.0 -37.1°
Reaches altitude 10° 20:36:42 10° 243° (WSW) 2,400 7.4 -37.6°
Maximum altitude 20:39:23 14° 274° (W) 2,137 7.4 -38.0°
Drops below altitude 10° 20:42:05 10° 305° (NW) 2,410 7.8 -38.4°
Sets 20:45:43 0° 330° (NNW) 3,347 8.5 -39.0°
